• In Moldova, Republic
  • List of Countries
  • For 7 days
  • Water Temperature
  • Satellite Maps
  • Weather Map
  • Weather Widgets
  • user-avatar
    Login

    Hourly Weather Sidi Bu-l-Abbas

    Today, 22 August, Tuesday

    Time Temperature Precipitation Wind Pressure Humidity
    00:00 +28°C° 0 mm 2 mps 722 mmHg 61%
    01:00 +27°C° 0 mm 1 mps 721 mmHg 63%
    02:00 +27°C° 0 mm 1 mps 721 mmHg 65%
    03:00 +26°C° 0 mm 1 mps 721 mmHg 66%
    04:00 +26°C° 0 mm 1 mps 721 mmHg 67%
    05:00 +26°C° 0 mm 1 mps 722 mmHg 68%
    06:00 +26°C° 0 mm 1 mps 722 mmHg 66%
    07:00 +27°C° 0 mm 1 mps 722 mmHg 58%
    08:00 +28°C° 0 mm 1 mps 722 mmHg 51%
    09:00 +29°C° 0 mm 1 mps 722 mmHg 43%
    10:00 +31°C° 0 mm 2 mps 722 mmHg 39%
    11:00 +33°C° 0 mm 3 mps 722 mmHg 34%
    12:00 +35°C° 0 mm 3 mps 722 mmHg 29%
    13:00 +35°C° 0 mm 4 mps 722 mmHg 28%
    14:00 +36°C° 0 mm 4 mps 722 mmHg 27%
    15:00 +36°C° 0 mm 5 mps 721 mmHg 26%
    16:00 +35°C° 0 mm 4 mps 721 mmHg 28%
    17:00 +34°C° 0 mm 4 mps 721 mmHg 29%
    18:00 +34°C° 0 mm 4 mps 721 mmHg 31%
    19:00 +33°C° 0 mm 3 mps 721 mmHg 34%
    20:00 +31°C° 0 mm 3 mps 721 mmHg 36%
    21:00 +30°C° 0 mm 2 mps 721 mmHg 39%
    22:00 +29°C° 0 mm 2 mps 721 mmHg 41%
    23:00 +28°C° 0 mm 1 mps 721 mmHg 43%

    Tomorrow, 23 August, Wednesday

    Time Temperature Precipitation Wind Pressure Humidity
    00:00 +28°C° 0 mm 1 mps 721 mmHg 45%
    01:00 +27°C° 0 mm 1 mps 721 mmHg 48%
    02:00 +26°C° 0 mm 1 mps 720 mmHg 50%
    03:00 +26°C° 0 mm 1 mps 720 mmHg 52%
    04:00 +26°C° 0 mm 1 mps 720 mmHg 53%
    05:00 +25°C° 0 mm 1 mps 720 mmHg 54%
    06:00 +25°C° 0 mm 1 mps 721 mmHg 55%
    07:00 +27°C° 0 mm 1 mps 721 mmHg 46%
    08:00 +29°C° 0 mm 1 mps 721 mmHg 37%
    09:00 +31°C° 0 mm 1 mps 722 mmHg 28%
    10:00 +33°C° 0 mm 1 mps 722 mmHg 25%
    11:00 +35°C° 0 mm 2 mps 722 mmHg 22%
    12:00 +36°C° 0 mm 3 mps 722 mmHg 19%
    13:00 +37°C° 0 mm 3 mps 721 mmHg 20%
    14:00 +37°C° 0 mm 4 mps 721 mmHg 21%
    15:00 +37°C° 0 mm 4 mps 721 mmHg 21%
    16:00 +36°C° 0 mm 4 mps 721 mmHg 24%
    17:00 +35°C° 0 mm 4 mps 720 mmHg 28%
    18:00 +34°C° 0 mm 4 mps 720 mmHg 31%
    19:00 +33°C° 0 mm 3 mps 721 mmHg 34%
    20:00 +31°C° 0 mm 2 mps 721 mmHg 37%
    21:00 +30°C° 0 mm 2 mps 721 mmHg 40%
    22:00 +30°C° 0 mm 1 mps 721 mmHg 42%
    23:00 +29°C° 0 mm 1 mps 721 mmHg 43%

    Day after tomorrow, 24 August, Thursday

    Time Temperature Precipitation Wind Pressure Humidity
    00:00 +29°C° 0 mm 1 mps 721 mmHg 45%
    01:00 +28°C° 0 mm 1 mps 720 mmHg 48%
    02:00 +27°C° 0 mm 1 mps 720 mmHg 50%
    03:00 +27°C° 0 mm 1 mps 720 mmHg 53%
    04:00 +26°C° 0 mm 1 mps 720 mmHg 55%
    05:00 +24°C° 0 mm 0 mps 720 mmHg 57%
    06:00 +24°C° 0 mm 0 mps 720 mmHg 58%
    07:00 +26°C° 0 mm 0 mps 721 mmHg 50%
    08:00 +30°C° 0 mm 1 mps 721 mmHg 43%
    09:00 +32°C° 0 mm 1 mps 722 mmHg 35%
    10:00 +33°C° 0 mm 1 mps 722 mmHg 31%
    11:00 +35°C° 0 mm 2 mps 722 mmHg 28%
    12:00 +37°C° 0 mm 2 mps 722 mmHg 25%
    13:00 +37°C° 0 mm 3 mps 721 mmHg 25%
    14:00 +37°C° 0 mm 4 mps 721 mmHg 26%
    15:00 +37°C° 0 mm 4 mps 720 mmHg 27%
    16:00 +36°C° 0 mm 4 mps 720 mmHg 30%
    17:00 +35°C° 0 mm 3 mps 720 mmHg 32%
    18:00 +34°C° 0 mm 3 mps 720 mmHg 35%
    19:00 +34°C° 0 mm 2 mps 720 mmHg 37%
    20:00 +32°C° 0 mm 2 mps 720 mmHg 39%
    21:00 +31°C° 0 mm 1 mps 721 mmHg 41%
    22:00 +31°C° 0 mm 1 mps 721 mmHg 43%
    23:00 +30°C° 0 mm 1 mps 721 mmHg 45%

    25 August, Friday

    Time Temperature Precipitation Wind Pressure Humidity
    00:00 +30°C° 0 mm 1 mps 720 mmHg 46%
    01:00 +29°C° 0.1 mm 1 mps 720 mmHg 48%
    02:00 +29°C° 0.1 mm 2 mps 720 mmHg 49%
    03:00 +29°C° 0.1 mm 2 mps 720 mmHg 50%
    04:00 +29°C° 0.1 mm 2 mps 720 mmHg 50%
    05:00 +29°C° 0.1 mm 2 mps 720 mmHg 49%
    06:00 +29°C° 0.1 mm 2 mps 720 mmHg 49%
    07:00 +30°C° 0 mm 2 mps 720 mmHg 44%
    08:00 +32°C° 0 mm 2 mps 720 mmHg 39%
    09:00 +33°C° 0 mm 1 mps 721 mmHg 34%
    10:00 +36°C° 0 mm 2 mps 721 mmHg 30%
    11:00 +37°C° 0 mm 2 mps 720 mmHg 27%
    12:00 +39°C° 0 mm 3 mps 720 mmHg 23%
    13:00 +39°C° 0 mm 3 mps 720 mmHg 22%
    14:00 +41°C° 0 mm 4 mps 720 mmHg 22%
    15:00 +41°C° 0 mm 5 mps 719 mmHg 21%
    16:00 +40°C° 0 mm 4 mps 719 mmHg 24%
    17:00 +38°C° 0 mm 4 mps 719 mmHg 27%
    18:00 +37°C° 0 mm 3 mps 719 mmHg 29%
    19:00 +36°C° 0.1 mm 3 mps 719 mmHg 31%
    20:00 +35°C° 0.1 mm 3 mps 719 mmHg 33%
    21:00 +34°C° 0.1 mm 2 mps 720 mmHg 35%
    22:00 +34°C° 0.1 mm 2 mps 720 mmHg 36%
    23:00 +32°C° 0.1 mm 2 mps 719 mmHg 37%

    26 August, Saturday

    Time Temperature Precipitation Wind Pressure Humidity
    00:00 +32°C° 0.1 mm 2 mps 719 mmHg 38%
    01:00 +31°C° 0 mm 2 mps 719 mmHg 39%
    02:00 +31°C° 0 mm 2 mps 718 mmHg 40%
    03:00 +30°C° 0 mm 2 mps 718 mmHg 41%
    04:00 +30°C° 0 mm 2 mps 718 mmHg 43%
    05:00 +30°C° 0 mm 2 mps 718 mmHg 45%
    06:00 +29°C° 0 mm 1 mps 718 mmHg 47%
    07:00 +30°C° 0 mm 1 mps 719 mmHg 43%
    08:00 +32°C° 0 mm 1 mps 719 mmHg 38%
    09:00 +33°C° 0 mm 1 mps 719 mmHg 34%
    10:00 +35°C° 0 mm 2 mps 719 mmHg 31%
    11:00 +36°C° 0 mm 3 mps 719 mmHg 28%
    12:00 +38°C° 0 mm 3 mps 719 mmHg 24%
    13:00 +38°C° 0 mm 3 mps 719 mmHg 25%
    14:00 +38°C° 0 mm 4 mps 719 mmHg 25%
    15:00 +38°C° 0 mm 4 mps 718 mmHg 25%
    16:00 +37°C° 0 mm 4 mps 718 mmHg 28%
    17:00 +36°C° 0 mm 3 mps 718 mmHg 31%
    18:00 +36°C° 0 mm 3 mps 718 mmHg 34%
    19:00 +35°C° 0 mm 3 mps 718 mmHg 38%
    20:00 +34°C° 0 mm 3 mps 718 mmHg 41%
    21:00 +33°C° 0 mm 4 mps 718 mmHg 44%
    22:00 +33°C° 0 mm 3 mps 718 mmHg 42%
    23:00 +33°C° 0 mm 3 mps 718 mmHg 39%

    27 August, Sunday

    Time Temperature Precipitation Wind Pressure Humidity
    00:00 +33°C° 0 mm 3 mps 718 mmHg 37%
    01:00 +32°C° 0 mm 2 mps 718 mmHg 37%
    02:00 +32°C° 0 mm 2 mps 718 mmHg 37%
    03:00 +32°C° 0 mm 1 mps 718 mmHg 37%
    04:00 +32°C° 0 mm 2 mps 718 mmHg 37%
    05:00 +31°C° 0 mm 3 mps 718 mmHg 37%
    06:00 +31°C° 0 mm 3 mps 718 mmHg 36%
    07:00 +33°C° 0 mm 3 mps 719 mmHg 33%
    08:00 +34°C° 0 mm 4 mps 719 mmHg 30%
    09:00 +35°C° 0 mm 4 mps 719 mmHg 27%
    10:00 +36°C° 0.1 mm 4 mps 719 mmHg 25%
    11:00 +37°C° 0.1 mm 4 mps 719 mmHg 23%
    12:00 +38°C° 0.1 mm 4 mps 719 mmHg 21%
    13:00 +38°C° 0 mm 4 mps 718 mmHg 23%
    14:00 +37°C° 0 mm 3 mps 718 mmHg 25%
    15:00 +37°C° 0 mm 3 mps 718 mmHg 27%
    16:00 +36°C° 0.2 mm 3 mps 718 mmHg 31%
    17:00 +35°C° 0.2 mm 3 mps 718 mmHg 34%
    18:00 +34°C° 0.2 mm 3 mps 718 mmHg 38%
    19:00 +31°C° 0 mm 3 mps 718 mmHg 42%
    20:00 +30°C° 0 mm 4 mps 718 mmHg 47%
    21:00 +29°C° 0 mm 4 mps 719 mmHg 52%
    22:00 +28°C° 0 mm 4 mps 719 mmHg 53%
    23:00 +28°C° 0 mm 4 mps 718 mmHg 55%
    Show more